Theta_e
331 325 329 325 321 321 322 320 316 315 317 314 313 313 312 310 310 309 308 308 309 310 310 309 310 309 308 307 307 307 308 316 331 341 343 341 341 342 341 343 344 341 336
330 330 330 326 322 322 321 318 317 318 317 315 314 314 313 311 309 308 309 313 316 314 314 313 312 312 309 308 307 307 307 310 317 331 341 343 342 341 342 342 344 343 338
329 329 328 325 323 322 320 320 319 319 318 316 316 315 314 311 308 309 310 313 312 313 317 320 319 317 315 311 310 308 308 309 311 317 331 339 342 342 342 342 343 344 343
327 326 326 324 323 323 321 320 320 320 318 317 317 317 317 313 310 314 316 314 311 311 313 322 325 324 321 319 320 314 311 309 309 311 316 328 339 342 343 342 343 342 343
327 326 324 323 322 322 321 320 320 319 317 317 317 317 318 316 315 322 324 323 318 316 315 325 329 329 326 323 323 323 313 309 309 309 313 314 327 338 342 343 343 344 342
327 325 323 323 322 322 322 321 321 318 316 315 315 314 315 317 323 326 326 327 322 321 322 327 324 328 330 328 326 325 320 313 307 325 311 311 314 327 337 341 344 345 344
327 324 322 322 323 323 322 322 321 318 317 316 316 314 314 322 327 325 325 325 325 327 326 325 322 326 326 328 329 327 329 325 323 329 315 311 311 315 328 336 340 343 343
326 322 320 321 324 324 323 323 321 319 318 319 317 316 317 326 324 322 323 324 324 325 325 325 325 325 326 324 326 328 327 328 329 330 323 314 311 312 319 328 336 342 342
326 322 320 321 323 325 325 323 321 320 319 320 319 317 324 322 322 323 323 323 322 321 322 325 325 323 324 326 323 326 325 326 329 331 328 320 313 313 316 324 333 340 341
326 321 321 320 323 325 326 325 321 321 320 321 319 318 320 322 323 324 321 320 319 317 317 318 321 322 324 323 323 324 324 324 328 330 329 323 314 315 314 324 330 337 340
326 322 322 322 323 325 326 324 322 322 321 321 319 319 321 322 324 322 320 317 316 317 317 317 318 319 322 324 323 324 324 328 329 329 328 321 315 318 314 322 330 335 338
326 323 323 323 324 325 327 324 322 322 322 321 318 320 323 323 323 322 321 319 319 317 318 321 324 325 325 326 326 324 326 329 329 327 323 319 320 318 314 322 331 335 337
327 324 324 324 325 326 327 323 322 322 322 318 318 323 324 324 324 324 321 321 318 318 319 322 323 324 325 327 328 327 328 328 329 327 320 315 320 320 315 322 331 335 336
327 326 324 324 325 327 327 322 322 322 321 317 321 325 325 324 324 323 322 322 318 319 321 322 322 321 322 324 325 326 326 327 328 326 317 313 315 320 316 324 332 335 336
327 327 325 325 325 326 326 323 323 322 318 319 324 326 326 325 325 324 323 323 322 319 321 323 323 321 321 322 323 325 325 325 326 325 315 310 316 321 317 324 331 335 337
326 327 325 325 325 327 325 323 323 321 317 323 327 327 327 327 326 325 324 323 323 321 319 321 322 320 322 321 322 322 324 324 324 324 314 309 321 322 318 325 332 335 338
325 326 326 325 325 325 324 324 322 317 320 325 326 327 327 328 328 326 325 325 324 324 322 320 321 319 320 321 323 323 322 323 321 313 310 313 323 322 319 327 332 334 338
325 325 325 325 325 325 325 323 321 317 323 325 327 327 327 327 328 328 326 325 324 324 323 320 321 320 320 321 322 322 323 321 318 312 316 323 323 321 323 327 330 334 337
324 324 324 325 324 324 325 322 318 319 324 326 327 327 326 327 327 327 326 325 324 323 321 321 322 320 321 321 322 322 322 320 318 314 324 325 324 323 328 328 329 335 336
324 324 324 324 323 324 322 320 316 322 325 326 327 325 326 327 327 326 326 325 323 322 320 322 321 320 320 321 322 322 321 319 318 323 326 325 324 326 327 327 330 333 334
324 324 324 323 323 323 322 319 318 324 325 326 325 327 326 327 327 327 327 325 322 320 321 321 321 320 320 322 322 322 321 321 319 324 325 325 324 326 326 327 329 331 333
323 323 323 322 322 322 321 316 322 325 325 325 327 326 326 326 326 326 326 325 322 320 321 321 320 321 321 322 323 325 324 323 322 325 324 324 325 327 326 326 331 330 333
322 323 322 322 322 322 318 319 322 324 325 325 325 325 325 325 323 322 324 323 321 321 321 321 321 320 321 322 322 325 325 323 325 324 324 325 327 326 326 329 330 333 333
321 322 322 322 322 319 318 321 323 326 326 324 323 324 325 324 322 323 323 323 322 321 320 320 320 320 322 322 322 322 321 323 325 328 327 328 327 327 327 330 331 333 334
321 322 322 322 320 319 320 323 325 327 326 324 323 323 324 324 322 322 322 322 320 321 321 320 321 321 322 322 322 322 323 325 324 327 328 328 329 330 334 332 332 332 333
322 322 322 321 320 320 322 324 328 327 327 325 322 322 324 325 324 322 320 321 322 322 321 321 321 321 322 323 322 322 325 327 327 327 330 328 329 331 330 331 332 332 332
Wind_Speed
22 20 18 16 16 14 13 11 9 7 8 9 9 9 9 9 10 11 11 12 13 14 13 14 12 13 16 18 19 18 19 17 16 17 15 15 14 12 11 8 8 10 7
13 20 18 16 14 12 12 11 10 9 9 9 9 10 11 11 11 11 10 10 10 11 11 12 13 12 11 15 16 17 20 20 18 18 17 16 16 16 13 12 10 14 10
14 17 19 15 14 12 12 11 11 10 9 9 10 11 11 11 12 11 10 10 9 10 11 10 10 11 11 11 13 15 17 20 21 18 18 16 17 18 18 15 12 15 14
14 15 16 16 15 15 13 10 10 10 10 10 12 12 13 12 12 13 11 11 11 11 11 10 10 10 11 10 11 12 14 18 20 20 18 17 17 19 18 20 17 17 18
17 14 16 18 15 17 14 12 10 8 9 10 12 14 14 14 12 12 13 13 13 15 13 10 11 12 12 12 12 12 14 15 16 17 19 19 17 19 18 19 20 20 19
16 14 15 18 16 17 16 14 10 8 7 8 11 14 14 14 13 13 15 16 17 16 15 15 16 14 14 13 14 13 13 13 14 11 17 19 19 18 20 19 19 18 18
16 16 15 17 18 19 17 15 12 7 5 7 10 12 12 11 14 17 18 19 18 19 18 18 18 16 18 17 16 14 13 13 11 12 13 17 19 19 19 20 19 17 12
16 16 17 18 20 20 17 16 14 11 10 8 11 12 12 12 17 18 19 21 22 21 21 20 21 20 18 20 18 17 15 14 11 12 14 15 18 19 19 20 19 16 13
19 18 16 20 21 21 20 18 16 12 11 10 12 12 11 14 16 18 20 23 25 26 25 24 26 25 24 22 21 19 18 17 13 13 14 15 16 18 19 19 19 17 17
23 21 19 20 22 24 24 22 18 14 12 12 13 14 14 15 17 20 20 21 21 21 22 26 28 26 24 24 23 21 20 18 14 14 14 15 15 17 19 19 19 19 17
29 27 23 22 24 25 25 23 20 15 14 13 15 16 16 17 18 18 19 18 16 17 17 17 16 17 20 22 25 22 20 15 16 15 15 15 16 17 19 20 19 19 20
35 32 28 26 26 27 27 25 21 17 16 14 16 17 18 18 18 17 17 14 15 15 15 14 15 16 17 15 17 22 20 17 17 16 16 16 17 17 20 20 19 20 21
39 35 33 29 28 28 29 26 22 18 16 16 17 18 17 18 18 17 14 13 14 13 14 15 17 17 15 14 14 16 17 18 16 15 17 18 17 17 21 20 20 20 21
39 40 35 30 29 30 29 26 22 18 16 17 17 16 16 16 17 16 15 13 12 12 12 12 13 14 16 16 15 14 17 17 15 15 19 18 18 18 21 20 20 20 23
41 43 38 32 30 32 30 27 22 19 18 16 16 14 15 15 15 15 15 14 14 13 14 14 13 12 14 15 16 15 16 17 17 18 19 19 19 19 21 20 18 19 22
36 42 41 34 32 32 29 26 21 18 16 14 13 13 14 15 15 15 16 17 16 15 14 14 14 13 13 14 15 16 17 18 18 19 19 19 18 18 20 19 17 18 20
36 40 42 35 32 31 28 24 20 17 15 12 11 13 15 17 17 16 17 17 17 18 14 14 14 13 14 15 15 16 16 16 17 17 18 18 17 18 19 17 15 18 19
36 42 39 37 31 29 27 23 19 17 13 10 11 14 16 18 17 17 16 16 15 16 15 14 14 13 13 13 16 17 16 15 14 15 16 16 15 16 16 14 13 15 20
30 38 35 35 29 27 25 21 18 15 12 11 12 14 15 16 16 16 16 15 14 15 15 14 14 14 14 14 14 16 16 15 13 14 14 13 13 14 12 11 11 11 13
23 27 30 33 29 27 25 20 17 13 11 12 13 14 14 14 13 14 14 13 14 14 13 13 13 13 14 13 13 15 14 14 13 12 12 13 12 12 11 9 8 11 10
19 23 30 32 29 29 24 20 16 12 10 11 12 14 12 11 11 12 12 13 13 13 13 12 13 14 14 13 12 12 12 10 11 12 11 12 11 11 11 9 7 12 10
15 24 31 31 31 25 19 15 12 10 10 10 11 11 9 9 11 12 11 10 11 12 12 12 13 13 14 13 12 10 7 7 9 9 9 11 11 11 10 9 6 12 12
18 25 32 31 25 20 17 14 10 9 8 8 8 8 7 8 8 8 8 8 9 9 9 10 11 13 15 15 13 8 7 8 10 8 10 11 10 8 8 7 6 10 14
21 27 30 27 22 18 15 12 9 6 4 5 6 6 7 5 4 2 5 7 7 6 6 5 8 13 13 15 13 11 8 8 8 5 6 8 7 7 7 6 8 11 19
21 31 27 23 19 16 13 11 6 3 3 4 5 5 6 4 2 2 3 4 3 3 5 8 10 12 11 12 13 11 9 9 10 7 8 9 6 7 8 6 13 13 24
28 30 26 21 18 15 13 10 5 1 2 4 5 7 6 5 4 4 4 4 3 2 5 7 9 11 11 8 8 13 9 4 7 7 8 11 10 8 7 10 12 24 27
Wind_Direction
186 188 194 199 204 212 220 230 243 257 271 279 280 275 270 266 257 250 248 253 260 264 269 273 268 254 259 254 247 241 241 234 229 233 223 222 221 221 221 223 217 198 195
189 189 195 201 209 219 223 233 243 254 269 277 279 277 280 277 269 261 252 244 251 260 262 263 271 274 255 258 250 241 238 239 231 231 233 225 228 225 226 228 223 208 204
189 187 194 199 205 216 220 231 238 251 268 285 285 284 282 282 276 268 263 253 250 259 263 269 269 270 273 259 254 245 241 240 239 232 238 233 229 228 228 233 231 217 210
184 184 188 194 200 214 219 226 237 251 273 288 287 286 282 284 282 281 275 281 279 270 258 259 267 270 268 266 256 246 242 242 241 239 237 238 233 235 229 233 235 230 217
184 184 189 192 191 208 214 220 231 252 280 294 295 287 282 281 273 264 262 273 286 288 279 262 273 278 278 273 262 255 251 251 248 240 241 240 234 235 235 233 234 234 219
190 189 191 196 196 205 213 219 226 245 275 299 301 296 287 282 268 262 264 265 278 276 269 262 256 253 265 267 268 260 259 254 249 242 240 242 237 230 236 238 233 236 222
198 193 197 200 203 208 215 219 222 239 271 307 308 298 289 275 264 269 268 267 273 266 263 266 264 259 252 258 258 260 260 255 243 244 247 240 240 234 232 236 239 236 219
208 201 205 207 210 214 219 221 224 237 249 287 311 303 287 271 270 267 266 264 264 265 265 261 262 259 254 252 255 253 252 252 241 243 251 248 240 235 231 233 236 234 222
209 208 212 214 214 217 223 223 224 236 249 275 304 299 276 269 266 268 271 271 269 266 261 256 256 256 248 249 250 250 250 243 232 237 247 248 241 234 232 230 230 231 222
214 211 218 218 219 219 222 224 225 237 254 275 294 293 281 274 271 276 277 276 272 268 262 256 256 254 251 248 248 246 245 245 238 239 243 242 237 234 230 230 228 228 225
219 217 218 222 222 222 225 226 226 239 255 273 288 287 282 277 276 272 277 274 272 266 264 262 262 262 255 246 242 244 243 236 235 237 242 244 238 235 229 229 227 223 223
223 223 222 224 224 225 224 225 226 240 255 275 285 284 279 277 274 270 275 265 267 261 257 257 250 259 258 248 245 239 235 229 231 238 243 239 239 236 227 228 227 221 224
235 228 226 227 226 225 225 226 229 241 256 277 280 277 274 274 270 267 266 264 265 259 255 251 255 257 258 241 236 230 232 227 230 238 239 238 239 237 229 226 226 224 223
244 234 230 228 228 227 226 229 233 246 261 274 276 270 268 270 266 265 264 264 268 257 257 258 264 265 254 249 242 234 227 227 233 240 240 237 237 236 229 225 228 227 224
251 240 232 230 228 227 224 227 231 249 267 269 271 267 268 270 271 266 263 261 260 259 258 260 259 262 251 246 238 232 225 225 228 237 240 236 239 234 228 227 230 228 223
259 247 235 230 227 225 225 228 235 252 259 265 265 272 273 269 269 267 263 260 259 256 256 256 256 260 255 244 234 228 224 226 230 240 240 237 240 237 225 228 233 231 224
264 249 236 226 224 224 225 224 232 251 253 261 274 276 277 272 268 266 261 258 258 247 254 252 250 257 252 247 236 228 225 228 230 238 234 239 246 238 226 230 238 238 228
267 254 234 225 221 223 219 219 235 245 249 261 278 280 278 273 267 261 262 262 255 246 252 250 245 254 250 245 235 225 220 223 233 231 232 240 244 233 231 236 250 248 234
266 256 230 221 218 216 209 217 233 238 245 262 282 287 281 276 266 260 260 256 253 247 244 243 244 249 246 237 231 219 216 221 233 226 234 242 234 229 229 239 256 234 235
255 246 224 217 212 202 203 217 229 234 246 266 281 289 287 274 262 261 259 255 248 240 241 247 250 250 240 228 217 212 217 223 225 220 235 225 224 222 223 240 245 213 233
242 225 211 205 198 195 203 216 221 229 250 269 280 291 287 272 266 265 258 255 242 235 241 247 250 242 230 211 204 205 212 228 212 223 231 222 221 222 224 241 243 216 236
231 211 201 195 192 194 207 211 213 227 256 272 285 292 286 274 274 273 256 245 230 231 241 250 248 237 214 200 193 176 172 180 201 216 226 218 226 231 230 245 234 224 210
211 202 188 183 184 194 199 201 208 233 264 291 289 300 292 286 286 272 245 222 219 234 246 249 236 214 202 194 184 170 159 189 187 209 218 219 227 215 219 240 213 207 188
200 184 176 175 184 188 191 192 203 234 269 294 299 302 299 300 303 272 209 205 225 236 234 228 205 191 198 199 188 194 182 177 183 172 194 207 195 201 202 212 192 188 180
183 174 171 177 181 180 184 183 196 257 277 307 314 313 296 286 260 216 197 196 200 211 214 206 194 188 192 195 201 196 178 172 171 150 171 186 174 173 163 173 176 167 184
167 168 173 177 174 178 180 183 182 307 292 326 319 311 293 259 226 177 151 145 147 177 195 188 189 192 193 205 204 192 192 158 188 180 160 168 154 137 155 186 183 175 178